EN

Hourly Weather Aarwangen

Today, 14 June, Monday

Time Temperature Precipitation Wind Pressure Humidity
00:00 +14°C° 0 mm 1 mps 723 mmHg 93%
01:00 +14°C° 0 mm 1 mps 723 mmHg 93%
02:00 +13°C° 0 mm 1 mps 723 mmHg 94%
03:00 +13°C° 0 mm 1 mps 722 mmHg 94%
04:00 +12°C° 0 mm 1 mps 722 mmHg 94%
05:00 +13°C° 0 mm 1 mps 722 mmHg 89%
06:00 +15°C° 0 mm 1 mps 723 mmHg 84%
07:00 +16°C° 0 mm 1 mps 723 mmHg 78%
08:00 +19°C° 0 mm 1 mps 723 mmHg 71%
09:00 +21°C° 0 mm 2 mps 723 mmHg 63%
10:00 +24°C° 0 mm 2 mps 723 mmHg 55%
11:00 +25°C° 0 mm 2 mps 722 mmHg 50%
12:00 +27°C° 0 mm 2 mps 722 mmHg 45%
13:00 +28°C° 0 mm 2 mps 722 mmHg 40%
14:00 +28°C° 0 mm 2 mps 722 mmHg 40%
15:00 +28°C° 0 mm 2 mps 722 mmHg 40%
16:00 +28°C° 0 mm 2 mps 721 mmHg 40%
17:00 +27°C° 0 mm 2 mps 721 mmHg 51%
18:00 +25°C° 0 mm 1 mps 721 mmHg 61%
19:00 +24°C° 0 mm 1 mps 721 mmHg 71%
20:00 +22°C° 0 mm 1 mps 721 mmHg 77%
21:00 +20°C° 0 mm 1 mps 721 mmHg 82%
22:00 +18°C° 0 mm 1 mps 721 mmHg 87%
23:00 +18°C° 0 mm 1 mps 721 mmHg 88%

Tomorrow, 15 June, Tuesday

Time Temperature Precipitation Wind Pressure Humidity
00:00 +16°C° 0 mm 1 mps 721 mmHg 90%
01:00 +14°C° 0 mm 0 mps 721 mmHg 91%
02:00 +14°C° 0 mm 0 mps 721 mmHg 91%
03:00 +14°C° 0 mm 0 mps 720 mmHg 92%
04:00 +14°C° 0 mm 1 mps 720 mmHg 93%
05:00 +15°C° 0 mm 0 mps 721 mmHg 88%
06:00 +16°C° 0 mm 0 mps 721 mmHg 83%
07:00 +17°C° 0 mm 0 mps 721 mmHg 78%
08:00 +20°C° 0 mm 0 mps 721 mmHg 70%
09:00 +24°C° 0 mm 1 mps 721 mmHg 62%
10:00 +26°C° 0 mm 1 mps 721 mmHg 54%
11:00 +27°C° 0 mm 1 mps 721 mmHg 50%
12:00 +28°C° 0 mm 1 mps 721 mmHg 46%
13:00 +29°C° 0 mm 2 mps 721 mmHg 42%
14:00 +29°C° 0 mm 2 mps 721 mmHg 42%
15:00 +29°C° 0 mm 2 mps 721 mmHg 42%
16:00 +29°C° 0 mm 2 mps 721 mmHg 43%
17:00 +27°C° 0 mm 2 mps 721 mmHg 52%
18:00 +26°C° 0 mm 1 mps 720 mmHg 61%
19:00 +24°C° 0 mm 1 mps 720 mmHg 70%
20:00 +22°C° 0 mm 1 mps 720 mmHg 74%
21:00 +21°C° 0 mm 1 mps 720 mmHg 77%
22:00 +19°C° 0 mm 1 mps 720 mmHg 81%
23:00 +18°C° 0 mm 1 mps 720 mmHg 82%

Day after tomorrow, 16 June, Wednesday

Time Temperature Precipitation Wind Pressure Humidity
00:00 +16°C° 0 mm 0 mps 720 mmHg 82%
01:00 +15°C° 0 mm 0 mps 719 mmHg 83%
02:00 +15°C° 0 mm 0 mps 719 mmHg 85%
03:00 +16°C° 0 mm 1 mps 719 mmHg 86%
04:00 +15°C° 0 mm 1 mps 719 mmHg 87%
05:00 +16°C° 0 mm 0 mps 719 mmHg 83%
06:00 +17°C° 0 mm 0 mps 719 mmHg 79%
07:00 +18°C° 0 mm 0 mps 719 mmHg 75%
08:00 +21°C° 0 mm 0 mps 719 mmHg 67%
09:00 +25°C° 0 mm 1 mps 719 mmHg 60%
10:00 +27°C° 0 mm 1 mps 719 mmHg 53%
11:00 +28°C° 0 mm 1 mps 719 mmHg 48%
12:00 +29°C° 0 mm 1 mps 719 mmHg 44%
13:00 +31°C° 0 mm 1 mps 718 mmHg 40%
14:00 +31°C° 0 mm 1 mps 718 mmHg 38%
15:00 +31°C° 0 mm 1 mps 718 mmHg 37%
16:00 +31°C° 0 mm 1 mps 718 mmHg 36%
17:00 +29°C° 0 mm 1 mps 717 mmHg 46%
18:00 +28°C° 0 mm 1 mps 717 mmHg 56%
19:00 +26°C° 0 mm 1 mps 717 mmHg 67%
20:00 +24°C° 0 mm 1 mps 717 mmHg 70%
21:00 +23°C° 0 mm 1 mps 717 mmHg 74%
22:00 +21°C° 0 mm 1 mps 717 mmHg 77%
23:00 +20°C° 0 mm 1 mps 717 mmHg 80%

17 June, Thursday

Time Temperature Precipitation Wind Pressure Humidity
00:00 +19°C° 0 mm 1 mps 717 mmHg 82%
01:00 +19°C° 0 mm 1 mps 717 mmHg 84%
02:00 +19°C° 0 mm 1 mps 717 mmHg 84%
03:00 +18°C° 0 mm 1 mps 717 mmHg 85%
04:00 +18°C° 0 mm 1 mps 717 mmHg 85%
05:00 +19°C° 0 mm 1 mps 717 mmHg 81%
06:00 +21°C° 0 mm 1 mps 718 mmHg 77%
07:00 +22°C° 0 mm 1 mps 718 mmHg 72%
08:00 +24°C° 0 mm 1 mps 718 mmHg 66%
09:00 +26°C° 0 mm 1 mps 718 mmHg 59%
10:00 +28°C° 0 mm 1 mps 718 mmHg 53%
11:00 +29°C° 0 mm 1 mps 718 mmHg 49%
12:00 +30°C° 0 mm 1 mps 718 mmHg 46%
13:00 +31°C° 0 mm 2 mps 717 mmHg 42%
14:00 +31°C° 0 mm 2 mps 717 mmHg 42%
15:00 +31°C° 0 mm 2 mps 717 mmHg 42%
16:00 +33°C° 0 mm 3 mps 717 mmHg 42%
17:00 +30°C° 0.1 mm 2 mps 716 mmHg 52%
18:00 +28°C° 0.1 mm 2 mps 716 mmHg 62%
19:00 +27°C° 0.1 mm 1 mps 716 mmHg 72%
20:00 +25°C° 1 mm 2 mps 717 mmHg 79%
21:00 +22°C° 1 mm 3 mps 717 mmHg 87%
22:00 +20°C° 1 mm 4 mps 718 mmHg 94%
23:00 +19°C° 1.1 mm 3 mps 718 mmHg 95%

18 June, Friday

Time Temperature Precipitation Wind Pressure Humidity
00:00 +18°C° 1.1 mm 2 mps 718 mmHg 95%
01:00 +19°C° 1.1 mm 1 mps 718 mmHg 96%
02:00 +18°C° 0 mm 1 mps 718 mmHg 96%
03:00 +16°C° 0 mm 0 mps 718 mmHg 95%
04:00 +16°C° 0 mm 0 mps 718 mmHg 94%
05:00 +17°C° 0 mm 0 mps 718 mmHg 93%
06:00 +18°C° 0 mm 0 mps 718 mmHg 91%
07:00 +19°C° 0 mm 0 mps 718 mmHg 89%
08:00 +21°C° 0 mm 0 mps 719 mmHg 78%
09:00 +23°C° 0 mm 0 mps 719 mmHg 68%
10:00 +27°C° 0 mm 1 mps 719 mmHg 57%
11:00 +28°C° 0 mm 1 mps 719 mmHg 53%
12:00 +29°C° 0 mm 1 mps 719 mmHg 49%
13:00 +30°C° 0 mm 2 mps 719 mmHg 45%
14:00 +30°C° 0.1 mm 2 mps 719 mmHg 47%
15:00 +30°C° 0.1 mm 1 mps 719 mmHg 48%
16:00 +30°C° 0.1 mm 1 mps 719 mmHg 50%
17:00 +28°C° 0.2 mm 1 mps 719 mmHg 60%
18:00 +27°C° 0.2 mm 1 mps 719 mmHg 70%
19:00 +25°C° 0.2 mm 1 mps 719 mmHg 80%
20:00 +24°C° 0.1 mm 1 mps 719 mmHg 83%
21:00 +22°C° 0.1 mm 1 mps 719 mmHg 86%
22:00 +21°C° 0.1 mm 1 mps 719 mmHg 89%
23:00 +20°C° 0.1 mm 1 mps 719 mmHg 90%

19 June, Saturday

Time Temperature Precipitation Wind Pressure Humidity
00:00 +20°C° 0.1 mm 1 mps 719 mmHg 91%
01:00 +20°C° 0.1 mm 1 mps 719 mmHg 92%
02:00 +19°C° 0.1 mm 1 mps 719 mmHg 92%
03:00 +19°C° 0.1 mm 1 mps 719 mmHg 92%
04:00 +19°C° 0.1 mm 1 mps 719 mmHg 92%
05:00 +20°C° 0 mm 1 mps 720 mmHg 90%
06:00 +21°C° 0 mm 1 mps 720 mmHg 87%
07:00 +20°C° 0 mm 0 mps 720 mmHg 85%
08:00 +24°C° 0 mm 1 mps 720 mmHg 77%
09:00 +26°C° 0 mm 1 mps 720 mmHg 69%
10:00 +27°C° 0 mm 1 mps 720 mmHg 61%
11:00 +29°C° 0 mm 2 mps 720 mmHg 56%
12:00 +30°C° 0 mm 2 mps 719 mmHg 51%
13:00 +31°C° 0 mm 2 mps 719 mmHg 47%
14:00 +31°C° 0 mm 3 mps 719 mmHg 46%
15:00 +33°C° 0 mm 3 mps 718 mmHg 45%
16:00 +33°C° 0 mm 3 mps 718 mmHg 44%
17:00 +31°C° 0 mm 3 mps 717 mmHg 52%
18:00 +29°C° 0 mm 3 mps 716 mmHg 60%
19:00 +27°C° 0 mm 3 mps 716 mmHg 68%
20:00 +26°C° 0.7 mm 2 mps 716 mmHg 76%
21:00 +24°C° 0.7 mm 2 mps 716 mmHg 84%
22:00 +22°C° 0.7 mm 1 mps 716 mmHg 92%
23:00 +22°C° 0 mm 1 mps 716 mmHg 92%
Show more